• In Netherlands
  • List of Countries
  • For 7 days
  • Water Temperature
  • Satellite Maps
  • Weather Map
  • Weather Widgets
  • user-avatar
    Login

    Hourly Weather Berat

    Today, 27 April, Thursday

    Time Temperature Precipitation Wind Pressure Humidity
    00:00 +12°C° 0 mm 2 mps 746 mmHg 78%
    01:00 +12°C° 0 mm 2 mps 746 mmHg 77%
    02:00 +12°C° 0 mm 2 mps 746 mmHg 76%
    03:00 +12°C° 0 mm 2 mps 745 mmHg 75%
    04:00 +10°C° 0 mm 2 mps 745 mmHg 73%
    05:00 +14°C° 0 mm 2 mps 745 mmHg 66%
    06:00 +16°C° 0 mm 2 mps 745 mmHg 59%
    07:00 +18°C° 0 mm 2 mps 745 mmHg 52%
    08:00 +20°C° 0 mm 2 mps 745 mmHg 46%
    09:00 +23°C° 0 mm 2 mps 746 mmHg 40%
    10:00 +25°C° 0 mm 2 mps 746 mmHg 34%
    11:00 +25°C° 0 mm 2 mps 746 mmHg 34%
    12:00 +26°C° 0 mm 3 mps 746 mmHg 34%
    13:00 +26°C° 0 mm 3 mps 746 mmHg 33%
    14:00 +26°C° 0 mm 3 mps 745 mmHg 35%
    15:00 +25°C° 0 mm 3 mps 745 mmHg 37%
    16:00 +24°C° 0 mm 3 mps 745 mmHg 39%
    17:00 +21°C° 0 mm 3 mps 745 mmHg 49%
    18:00 +18°C° 0 mm 2 mps 745 mmHg 59%
    19:00 +15°C° 0 mm 2 mps 745 mmHg 69%
    20:00 +15°C° 0 mm 2 mps 745 mmHg 69%
    21:00 +15°C° 0 mm 2 mps 745 mmHg 69%
    22:00 +14°C° 0 mm 2 mps 745 mmHg 68%
    23:00 +14°C° 0 mm 2 mps 745 mmHg 68%

    Tomorrow, 28 April, Friday

    Time Temperature Precipitation Wind Pressure Humidity
    00:00 +14°C° 0 mm 2 mps 745 mmHg 67%
    01:00 +13°C° 0 mm 3 mps 745 mmHg 66%
    02:00 +12°C° 0 mm 3 mps 745 mmHg 63%
    03:00 +12°C° 0 mm 3 mps 744 mmHg 61%
    04:00 +13°C° 0 mm 2 mps 744 mmHg 58%
    05:00 +14°C° 0 mm 3 mps 744 mmHg 53%
    06:00 +17°C° 0 mm 3 mps 745 mmHg 47%
    07:00 +19°C° 0 mm 3 mps 745 mmHg 42%
    08:00 +21°C° 0 mm 3 mps 745 mmHg 37%
    09:00 +24°C° 0 mm 3 mps 744 mmHg 32%
    10:00 +26°C° 0 mm 3 mps 744 mmHg 27%
    11:00 +27°C° 0 mm 4 mps 744 mmHg 28%
    12:00 +27°C° 0 mm 4 mps 744 mmHg 29%
    13:00 +28°C° 0 mm 5 mps 744 mmHg 30%
    14:00 +27°C° 0 mm 4 mps 744 mmHg 33%
    15:00 +26°C° 0 mm 4 mps 743 mmHg 36%
    16:00 +25°C° 0 mm 4 mps 743 mmHg 40%
    17:00 +22°C° 0 mm 3 mps 743 mmHg 46%
    18:00 +20°C° 0 mm 3 mps 743 mmHg 53%
    19:00 +17°C° 0 mm 3 mps 743 mmHg 59%
    20:00 +17°C° 0 mm 3 mps 743 mmHg 59%
    21:00 +16°C° 0 mm 3 mps 743 mmHg 59%
    22:00 +16°C° 0 mm 3 mps 743 mmHg 59%
    23:00 +16°C° 0 mm 3 mps 743 mmHg 57%

    Day after tomorrow, 29 April, Saturday

    Time Temperature Precipitation Wind Pressure Humidity
    00:00 +16°C° 0 mm 3 mps 743 mmHg 56%
    01:00 +16°C° 0 mm 3 mps 743 mmHg 54%
    02:00 +16°C° 0 mm 3 mps 742 mmHg 53%
    03:00 +16°C° 0 mm 3 mps 742 mmHg 53%
    04:00 +14°C° 0 mm 3 mps 742 mmHg 52%
    05:00 +17°C° 0 mm 3 mps 742 mmHg 50%
    06:00 +18°C° 0 mm 3 mps 742 mmHg 47%
    07:00 +20°C° 0 mm 3 mps 742 mmHg 45%
    08:00 +21°C° 0 mm 3 mps 742 mmHg 41%
    09:00 +22°C° 0 mm 3 mps 742 mmHg 36%
    10:00 +25°C° 0 mm 4 mps 742 mmHg 32%
    11:00 +25°C° 0.1 mm 4 mps 741 mmHg 36%
    12:00 +23°C° 0.1 mm 4 mps 741 mmHg 40%
    13:00 +23°C° 0.1 mm 5 mps 741 mmHg 43%
    14:00 +22°C° 0 mm 4 mps 741 mmHg 49%
    15:00 +21°C° 0 mm 4 mps 741 mmHg 55%
    16:00 +20°C° 0 mm 4 mps 741 mmHg 61%
    17:00 +18°C° 0.1 mm 3 mps 741 mmHg 70%
    18:00 +16°C° 0.1 mm 2 mps 741 mmHg 78%
    19:00 +15°C° 0.1 mm 2 mps 741 mmHg 87%
    20:00 +14°C° 0 mm 2 mps 742 mmHg 88%
    21:00 +14°C° 0 mm 2 mps 742 mmHg 89%
    22:00 +14°C° 0 mm 2 mps 742 mmHg 89%
    23:00 +13°C° 0 mm 2 mps 742 mmHg 90%

    30 April, Sunday

    Time Temperature Precipitation Wind Pressure Humidity
    00:00 +12°C° 0 mm 2 mps 742 mmHg 90%
    01:00 +12°C° 0 mm 2 mps 741 mmHg 91%
    02:00 +12°C° 0 mm 2 mps 741 mmHg 90%
    03:00 +10°C° 0 mm 2 mps 741 mmHg 90%
    04:00 +10°C° 0 mm 2 mps 741 mmHg 89%
    05:00 +13°C° 0 mm 2 mps 742 mmHg 82%
    06:00 +15°C° 0 mm 2 mps 742 mmHg 74%
    07:00 +17°C° 0 mm 2 mps 742 mmHg 67%
    08:00 +19°C° 0 mm 2 mps 742 mmHg 58%
    09:00 +21°C° 0 mm 2 mps 742 mmHg 49%
    10:00 +25°C° 0 mm 2 mps 742 mmHg 40%
    11:00 +25°C° 0 mm 3 mps 742 mmHg 40%
    12:00 +26°C° 0 mm 3 mps 742 mmHg 39%
    13:00 +26°C° 0 mm 3 mps 741 mmHg 38%
    14:00 +25°C° 0 mm 3 mps 741 mmHg 43%
    15:00 +24°C° 0 mm 3 mps 741 mmHg 47%
    16:00 +22°C° 0 mm 3 mps 741 mmHg 52%
    17:00 +20°C° 0 mm 3 mps 741 mmHg 60%
    18:00 +18°C° 0 mm 2 mps 741 mmHg 68%
    19:00 +16°C° 0 mm 2 mps 741 mmHg 76%
    20:00 +16°C° 0 mm 2 mps 741 mmHg 77%
    21:00 +16°C° 0 mm 2 mps 742 mmHg 78%
    22:00 +15°C° 0 mm 2 mps 742 mmHg 78%
    23:00 +15°C° 0.1 mm 2 mps 742 mmHg 78%

    1 May, Monday

    Time Temperature Precipitation Wind Pressure Humidity
    00:00 +15°C° 0.1 mm 2 mps 742 mmHg 78%
    01:00 +15°C° 0.1 mm 1 mps 742 mmHg 78%
    02:00 +15°C° 0 mm 1 mps 742 mmHg 80%
    03:00 +15°C° 0 mm 2 mps 742 mmHg 81%
    04:00 +15°C° 0 mm 2 mps 742 mmHg 83%
    05:00 +16°C° 0 mm 1 mps 742 mmHg 78%
    06:00 +19°C° 0 mm 1 mps 743 mmHg 73%
    07:00 +20°C° 0 mm 1 mps 743 mmHg 69%
    08:00 +22°C° 0 mm 1 mps 743 mmHg 61%
    09:00 +24°C° 0 mm 1 mps 743 mmHg 54%
    10:00 +25°C° 0 mm 1 mps 744 mmHg 47%
    11:00 +26°C° 0.7 mm 2 mps 743 mmHg 49%
    12:00 +26°C° 0.7 mm 2 mps 743 mmHg 50%
    13:00 +26°C° 0.7 mm 3 mps 743 mmHg 51%
    14:00 +25°C° 0.9 mm 2 mps 743 mmHg 55%
    15:00 +24°C° 0.9 mm 2 mps 743 mmHg 58%
    16:00 +24°C° 0.9 mm 2 mps 743 mmHg 62%
    17:00 +22°C° 0.1 mm 1 mps 743 mmHg 69%
    18:00 +20°C° 0.1 mm 1 mps 743 mmHg 75%
    19:00 +18°C° 0.1 mm 1 mps 743 mmHg 82%
    20:00 +18°C° 0 mm 1 mps 743 mmHg 83%
    21:00 +16°C° 0 mm 1 mps 744 mmHg 85%
    22:00 +16°C° 0 mm 1 mps 744 mmHg 86%
    23:00 +15°C° 0.1 mm 1 mps 744 mmHg 86%

    2 May, Tuesday

    Time Temperature Precipitation Wind Pressure Humidity
    00:00 +15°C° 0.1 mm 1 mps 744 mmHg 86%
    01:00 +15°C° 0.1 mm 1 mps 744 mmHg 87%
    02:00 +15°C° 0 mm 1 mps 744 mmHg 86%
    03:00 +15°C° 0 mm 1 mps 744 mmHg 85%
    04:00 +15°C° 0 mm 2 mps 744 mmHg 84%
    05:00 +16°C° 0 mm 1 mps 744 mmHg 80%
    06:00 +19°C° 0 mm 1 mps 744 mmHg 75%
    07:00 +21°C° 0 mm 1 mps 744 mmHg 70%
    08:00 +23°C° 0 mm 1 mps 744 mmHg 61%
    09:00 +25°C° 0 mm 1 mps 744 mmHg 52%
    10:00 +27°C° 0 mm 1 mps 744 mmHg 43%
    11:00 +27°C° 0.2 mm 2 mps 744 mmHg 44%
    12:00 +27°C° 0.2 mm 2 mps 744 mmHg 44%
    13:00 +27°C° 0.2 mm 3 mps 744 mmHg 45%
    14:00 +27°C° 0.3 mm 3 mps 744 mmHg 49%
    15:00 +26°C° 0.3 mm 3 mps 744 mmHg 54%
    16:00 +25°C° 0.3 mm 3 mps 744 mmHg 58%
    17:00 +23°C° 0.3 mm 2 mps 744 mmHg 67%
    18:00 +20°C° 0.3 mm 2 mps 744 mmHg 75%
    19:00 +18°C° 0.3 mm 2 mps 744 mmHg 84%
    20:00 +18°C° 0.3 mm 1 mps 744 mmHg 85%
    21:00 +16°C° 0.3 mm 1 mps 744 mmHg 87%
    22:00 +16°C° 0.3 mm 1 mps 744 mmHg 88%
    23:00 +16°C° 0.1 mm 1 mps 744 mmHg 88%
    Show more